This is the latest recevied weather packets stored in our database for station/object KM8V-8. If no packets are shown the sender has not sent any weather packets the latest 10 day(s).
| Time | Temp. | Humidity | Pressure | Rain* | Wind** | Luminosity | Snow |
|---|---|---|---|---|---|---|---|
| 1777607431 | 6.11° C | 79% | 1014 hPa | 0 mm | - | 0 W/m² | - |
| 1777607130 | 6.11° C | 79% | 1014.2 hPa | 0 mm | - | 0 W/m² | - |
| 1777606830 | 6.11° C | 79% | 1014.3 hPa | 0 mm | - | 0 W/m² | - |
| 1777606530 | 6.11° C | 79% | 1014.3 hPa | 0 mm | - | 0 W/m² | - |
| 1777606230 | 5.56° C | 79% | 1014.3 hPa | 0 mm | - | 0 W/m² | - |
| 1777605930 | 5.56° C | 78% | 1014.3 hPa | 0 mm | - | 0 W/m² | - |
| 1777605631 | 5.56° C | 78% | 1014.3 hPa | 0 mm | - | 0 W/m² | - |
| 1777605330 | 5.56° C | 78% | 1014.4 hPa | 0 mm | - | 0 W/m² | - |
| 1777605030 | 6.11° C | 78% | 1014.4 hPa | 0 mm | - | 0 W/m² | - |
| 1777604731 | 6.11° C | 78% | 1014.4 hPa | 0 mm | - | 0 W/m² | - |
| 1777604430 | 6.11° C | 77% | 1014.4 hPa | 0 mm | - | 0 W/m² | - |
| 1777604131 | 6.11° C | 77% | 1014.4 hPa | 0 mm | - | 0 W/m² | - |
| 1777603831 | 6.11° C | 76% | 1014.3 hPa | 0 mm | - | 0 W/m² | - |
| 1777603531 | 6.11° C | 75% | 1014.3 hPa | 0 mm | - | 0 W/m² | - |
| 1777603231 | 6.11° C | 75% | 1014.2 hPa | 0 mm | - | 0 W/m² | - |
| 1777602931 | 6.67° C | 75% | 1014.2 hPa | 0 mm | - | 0 W/m² | - |
| 1777602631 | 6.67° C | 74% | 1014.2 hPa | 0 mm | - | 0 W/m² | - |
| 1777602331 | 6.67° C | 73% | 1014.2 hPa | 0 mm | - | 0 W/m² | - |
| 1777602032 | 6.67° C | 71% | 1014.1 hPa | 0 mm | - | 0 W/m² | - |
| 1777601731 | 6.67° C | 70% | 1014.1 hPa | 0 mm | - | 0 W/m² | - |
| 1777601432 | 7.22° C | 69% | 1014.1 hPa | 0 mm | - | 0 W/m² | - |
| 1777601132 | 7.22° C | 69% | 1014.1 hPa | 0 mm | - | 0 W/m² | - |
| 1777600817 | 7.78° C | 68% | 1014 hPa | 0 mm | - | 0 W/m² | - |
| 1777600517 | 7.78° C | 67% | 1014 hPa | 0 mm | - | 0 W/m² | - |
| 1777600217 | 7.78° C | 66% | 1013.9 hPa | 0 mm | - | 0 W/m² | - |
* Rain latest hour (hover to see other rain measurements)
** Current wind speed in m/s (hover to see current wind gust speed)